Weather History for De Queen, AR

Change the Weather History Date:

Sunday, May 10, 2009

  Actual Average Record
Temperature  
Mean Temperature 64 °F 68 °F  
Max Temperature 68 °F 80 °F 93 °F (1973)
Min Temperature 59 °F 57 °F 41 °F (1961)
Degree Days  
Heating Degree Days 1 1  
Month to date heating degree days 4 16  
Since 1 July heating degree days 2853 3037  
Cooling Degree Days 0 4  
Month to date cooling degree days 47 35  
Year to date cooling degree days 122 82  
Growing Degree Days 14 (Base 50)    
Moisture  
Dew Point 59 °F    
Average Humidity 91    
Maximum Humidity 100    
Minimum Humidity 81    
Precipitation  
Precipitation 3.18 in 0.19 in 3.18 in (2009)
Month to date precipitation 10.39 2.24  
Year to date precipitation 20.65 17.81  
Snow  
Snow 0.00 in - - ()
Month to date snowfall 0.0  
Since 1 July snowfall T  
Snow Depth 0.00 in    
Sea Level Pressure  
Sea Level Pressure 30.05 in    
Wind  
Wind Speed 8 mph (NE)    
Max Wind Speed 15 mph    
Max Gust Speed 22 mph    
Visibility 8 miles    
Events Rain , Thunderstorm    
T = Trace of Precipitation, MM = Missing Value Source: NWS Daily Summary

Daily Weather History Graph

Daily Weather History Graph

Search for Another Location

Airport:

Trip Planner

Search our weather history database for the weather conditions in past years. The results will help you decide how hot, cold, wet, or windy it might be!

Date:

Astronomy

May. 10, 2009 Rise Set
Actual Time 6:19 AM CDT 8:08 PM CDT
Civil Twilight 5:52 AM CDT 8:36 PM CDT
Nautical Twilight 5:19 AM CDT 9:09 PM CDT
Astronomical Twilight 4:44 AM CDT 9:44 PM CDT
Moon 10:03 PM CDT (5/10) 6:58 AM CDT (5/10)
Length of Visible Light 14h 43m
Length of Day
13h 48m
Full, 98% of the Moon is Illuminated
May 10
Full
May 17
Last Quarter
May 24
New
May 30
First Quarter
Jun 7
Full

Hourly Weather History & Observations

Time (CDT) Temp. Dew Point Humidity Pressure Visibility Wind Dir Wind Speed Gust Speed Precip Events Conditions
12:08 AM 62.6 °F 59.0 °F 88% 30.05 in 10.0 mi Calm Calm - N/A Rain , Thunderstorm Light Rain
12:53 AM 62.1 °F 61.0 °F 96% 30.04 in 10.0 mi NNE 5.8 mph - N/A Rain , Thunderstorm Light Thunderstorms and Rain
1:33 AM 60.8 °F 60.8 °F 100% 30.05 in 1.8 mi North 9.2 mph - N/A Rain , Thunderstorm Heavy Thunderstorms and Rain
1:40 AM 59.0 °F 59.0 °F 100% 30.06 in 1.2 mi South 8.1 mph - N/A Rain , Thunderstorm Heavy Thunderstorms and Rain
1:49 AM 59.0 °F 59.0 °F 100% 30.02 in 3.0 mi NNE 8.1 mph - N/A Rain , Thunderstorm Light Thunderstorms and Rain
1:53 AM 59.0 °F 59.0 °F 100% 30.03 in 6.0 mi NE 6.9 mph 17.3 mph N/A Rain , Thunderstorm Light Thunderstorms and Rain
2:05 AM 60.8 °F 59.0 °F 94% 30.04 in 10.0 mi ENE 8.1 mph - 0.00 in Rain , Thunderstorm Light Thunderstorms and Rain
2:23 AM 60.8 °F 57.2 °F 88% 30.04 in 10.0 mi NE 9.2 mph 17.3 mph 0.00 in Thunderstorm Overcast
2:53 AM 60.1 °F 57.0 °F 90% 30.04 in 10.0 mi NE 5.8 mph - 0.00 in Rain , Thunderstorm Light Rain
3:09 AM 60.8 °F 57.2 °F 88% 30.08 in 8.0 mi NNW 6.9 mph - 0.00 in Rain , Thunderstorm Rain
3:27 AM 60.8 °F 57.2 °F 88% 30.07 in 8.0 mi NE 4.6 mph - N/A Rain , Thunderstorm Thunderstorms and Rain
3:53 AM 60.1 °F 57.0 °F 90% 30.04 in 10.0 mi NNE 8.1 mph - N/A Rain , Thunderstorm Light Rain
4:08 AM 60.8 °F 57.2 °F 88% 30.05 in 10.0 mi NE 5.8 mph - 0.00 in   Overcast
4:41 AM 60.8 °F 57.2 °F 88% 30.04 in 10.0 mi NE 10.4 mph - 0.00 in Thunderstorm Overcast
5:21 AM 60.8 °F 57.2 °F 88% 30.07 in 10.0 mi Calm Calm - 0.00 in Rain , Thunderstorm Thunderstorms and Rain
5:53 AM 60.1 °F 57.0 °F 90% 30.06 in 8.0 mi NE 8.1 mph - 0.04 in Rain , Thunderstorm Thunderstorms and Rain
6:03 AM 60.8 °F 57.2 °F 88% 30.05 in 8.0 mi NE 8.1 mph - 0.02 in Rain , Thunderstorm Thunderstorms and Rain
6:24 AM 60.8 °F 57.2 °F 88% 30.07 in 10.0 mi NNE 6.9 mph - 0.02 in Rain , Thunderstorm Light Thunderstorms and Rain
6:53 AM 60.1 °F 57.0 °F 90% 30.06 in 10.0 mi North 8.1 mph - 0.03 in Rain , Thunderstorm Light Rain
7:01 AM 60.8 °F 57.2 °F 88% 30.07 in 10.0 mi NE 9.2 mph - 0.00 in Rain Light Rain
8:32 AM 60.8 °F 57.2 °F 88% 30.09 in 10.0 mi ENE 9.2 mph - 0.00 in Rain , Thunderstorm Light Thunderstorms and Rain
8:53 AM 60.1 °F 57.0 °F 90% 30.08 in 4.0 mi NE 12.7 mph - 0.08 in Rain , Thunderstorm Thunderstorms and Rain
9:19 AM 60.8 °F 57.2 °F 88% 30.09 in 10.0 mi NNE 10.4 mph - 0.02 in Rain Light Rain
9:53 AM 61.0 °F 57.9 °F 90% 30.07 in 10.0 mi NE 12.7 mph 17.3 mph 0.02 in   Overcast
10:05 AM 60.8 °F 57.2 °F 88% 30.08 in 10.0 mi NE 11.5 mph - N/A   Overcast
10:29 AM 60.8 °F 57.2 °F 88% 30.08 in 10.0 mi ENE 10.4 mph - N/A   Overcast
10:53 AM 62.1 °F 59.0 °F 90% 30.06 in 10.0 mi NE 8.1 mph - N/A   Overcast
11:05 AM 62.6 °F 59.0 °F 88% 30.07 in 10.0 mi NE 10.4 mph 16.1 mph N/A Thunderstorm Overcast
11:53 AM 61.0 °F 59.0 °F 93% 30.07 in 3.0 mi NNE 4.6 mph - 0.10 in Rain , Thunderstorm Light Rain
12:05 PM 60.8 °F 59.0 °F 94% 30.08 in 10.0 mi NE 3.5 mph - 0.00 in Rain , Thunderstorm Light Rain
12:26 PM 60.8 °F 59.0 °F 94% 30.06 in 5.0 mi Variable 5.8 mph - 0.06 in Rain , Thunderstorm Rain
12:34 PM 60.8 °F 59.0 °F 94% 30.06 in 7.0 mi NNE 8.1 mph - 0.06 in Rain , Thunderstorm Light Rain
12:53 PM 61.0 °F 59.0 °F 93% 30.06 in 7.0 mi NNE 8.1 mph - 0.06 in Rain , Thunderstorm Thunderstorms and Rain
1:25 PM 60.8 °F 59.0 °F 94% 30.09 in 1.8 mi North 8.1 mph - N/A Rain , Thunderstorm Heavy Thunderstorms and Rain
1:32 PM 60.8 °F 59.0 °F 94% 30.08 in 1.5 mi NNE 6.9 mph - N/A Rain , Thunderstorm Heavy Thunderstorms and Rain
1:53 PM 61.0 °F 59.0 °F 93% 30.06 in 0.8 mi ENE 13.8 mph 20.7 mph N/A Rain , Thunderstorm Heavy Thunderstorms and Rain
2:02 PM 60.8 °F 59.0 °F 94% 30.10 in 1.0 mi SW 11.5 mph 19.6 mph 0.20 in Rain , Thunderstorm Heavy Thunderstorms and Rain
2:10 PM 60.8 °F 59.0 °F 94% 30.10 in 0.8 mi North 12.7 mph - 0.46 in Rain , Thunderstorm Heavy Thunderstorms and Rain
2:20 PM 60.8 °F 59.0 °F 94% 30.12 in 1.5 mi North 9.2 mph - 0.62 in Rain , Thunderstorm Heavy Thunderstorms and Rain
2:40 PM 60.8 °F 59.0 °F 94% 30.10 in 1.8 mi ENE 11.5 mph 17.3 mph 1.00 in Rain , Thunderstorm Thunderstorms and Rain
2:43 PM 60.8 °F 59.0 °F 94% 30.09 in 3.0 mi NE 15.0 mph 18.4 mph 1.01 in Rain , Thunderstorm Thunderstorms and Rain
2:53 PM 61.0 °F 59.0 °F 93% 30.04 in 3.0 mi ENE 12.7 mph - 1.06 in Rain , Thunderstorm Heavy Thunderstorms and Rain
3:25 PM 62.6 °F 59.0 °F 88% 30.00 in 10.0 mi East 11.5 mph 19.6 mph 0.03 in Rain , Thunderstorm Light Rain
3:48 PM 62.6 °F 60.8 °F 94% 29.99 in 10.0 mi NNE 8.1 mph 19.6 mph 0.03 in   Partly Cloudy
3:53 PM 64.9 °F 61.0 °F 87% 30.00 in 10.0 mi North 6.9 mph - 0.03 in Rain Light Rain
4:11 PM 64.4 °F 60.8 °F 88% 30.03 in 10.0 mi NNW 3.5 mph - 0.00 in   Mostly Cloudy
4:53 PM 66.9 °F 62.1 °F 84% 29.98 in 10.0 mi ENE 5.8 mph - 0.00 in   Mostly Cloudy
5:53 PM 68.0 °F 63.0 °F 84% 29.97 in 10.0 mi ENE 4.6 mph - N/A   Mostly Cloudy
6:53 PM 66.9 °F 62.1 °F 84% 29.97 in 10.0 mi ENE 4.6 mph - N/A   Overcast
7:09 PM 66.2 °F 62.6 °F 88% 29.98 in 10.0 mi ENE 4.6 mph - N/A   Overcast
7:26 PM 66.2 °F 62.6 °F 88% 29.99 in 10.0 mi East 5.8 mph - N/A   Mostly Cloudy
7:53 PM 66.0 °F 62.1 °F 87% 29.99 in 10.0 mi NE 3.5 mph - N/A   Overcast
8:49 PM 64.4 °F 62.6 °F 94% 30.02 in 10.0 mi NE 3.5 mph - N/A   Overcast
8:53 PM 64.9 °F 62.1 °F 90% 30.02 in 10.0 mi ENE 3.5 mph - N/A   Overcast
9:18 PM 64.4 °F 60.8 °F 88% 30.04 in 10.0 mi NE 6.9 mph - N/A   Overcast
9:34 PM 64.4 °F 60.8 °F 88% 30.05 in 10.0 mi NE 11.5 mph - N/A   Overcast
9:53 PM 64.0 °F 60.1 °F 87% 30.05 in 10.0 mi NE 6.9 mph - N/A   Overcast
10:53 PM 62.1 °F 57.0 °F 84% 30.06 in 10.0 mi NE 8.1 mph - N/A   Mostly Cloudy
11:07 PM 60.8 °F 55.4 °F 82% 30.07 in 10.0 mi NE 9.2 mph - N/A   Mostly Cloudy
11:53 PM 61.0 °F 55.9 °F 83% 30.07 in 10.0 mi NE 8.1 mph - N/A   Overcast